www.pogodaiklimat.ru

Погода и климат >> Архив погоды >> Малайзия >> Kuantan


ПОГОДА в Kuantan

  • Прогноз погоды в Kuantan
  • Монитор погоды в Kuantan
  • Климат города

АРХИВ ПОГОДЫ в Kuantan

Время (UTC), дата Ветер
(напр.,м/с)
 
Видим.   Явления Облачность Т
(С)
Тd
(С)
f
(%)
Тe
(С)
Тes
(С)
Комфортность P
(гПа)
Po
(гПа)
Тmin
(С)
Tmax
(С)
R
(мм)
R24
(мм)
S
(см)
00 11.11 штиль 0 12 км мгла 9/3 300 м
[Sc As op Ci sp]
+24.7 +23.8 95 +34 +34 очень
душно
1009.4 1007.6 +23.5 7
03 11.11 Ю 3 17 км мгла 9/3 570 м
[Cu hum Ac trans Ci sp]
+30.6 +25.6 75 +45 +50 опасность
перегрева
1010.2 1008.4
06 11.11 Ю 3 14 км мгла 9/3 500 м
[Cu med, cong Ac und Ci sp]
+31.9 +26.5 73 +48 +55 опасность
перегрева
1007.2 1005.5
09 11.11 В 3 15 км мгла 9/4 500 м
[Cu med, cong Ac und Ci sp]
+31.9 +27.1 76 +50 +52 опасность
перегрева
1005.8 1004.1
12 11.11 ЮВ 1 12 км гроза, ливневой дождь 9/5 500 м
[Cb cap Ac trans Cs]
+24.3 +23.8 97 +33 +33 очень
душно
1008.7 1006.9 +33.1 13
15 11.11 С 1 12 км гроза, ливневой дождь 9/4 500 м
[Cb cap Ac trans Cs]
+24.0 +23.3 96 +32 +32 очень
душно
1010.2 1008.4
18 11.11 З 1 8000 м слабый дождь {гроза} 10/5 180 м
[Sc Ac trans Cs]
+24.1 +23.7 98 +33 +33 очень
душно
1009.0 1007.2 2
21 11.11 штиль 0 7000 м дымка {дождь} 8/4 120 м
[St Ac lent Ci sp]
+23.9 +23.5 98 +32 +32 очень
душно
1007.5 1005.7
00 12.11 З 1 1200 м в посл. час туман 9/4 <50 м
[St Ac trans Cs]
+23.7 +23.3 98 +32 +32 очень
душно
1009.5 1007.7 +23.5 15
03 12.11 З 2 16 км мгла 8/3 570 м
[Cu med, cong Ac trans Ci sp]
+28.4 +25.2 83 +41 +48 опасность
перегрева
1010.4 1008.6
06 12.11 ЮВ 1 16 км мгла 8/4 540 м
[Cu med, cong Ac trans Ci sp]
+31.3 +26.0 74 +47 +55 опасность
перегрева
1007.2 1005.4
09 12.11 ЮВ 3 16 км мгла 8/4 480 м
[Cb cap Ac trans Ci sp]
+30.1 +26.5 81 +46 +48 опасность
перегрева
1005.3 1003.6
12 12.11 С 3 9000 м гроза, ливневой дождь 9/4 480 м
[Cb cap Ac und Cs]
+24.4 +23.9 97 +33 +33 очень
душно
1007.9 1006.1 +32.0 5
15 12.11 штиль 0 10 км гроза, ливневой дождь 9/4 480 м
[Cb cap Ac und Cs]
+24.7 +23.9 95 +34 +34 очень
душно
1010.5 1008.7
18 12.11 З 2 8000 м в посл. час дождь 9/4 180 м
[St Ac lent Cs]
+24.5 +24.0 97 +34 +34 очень
душно
1008.1 1006.3 0.8
21 12.11 штиль 0 9000 м дымка {дождь} 9/4 90 м
[Sc Ac lent Ci sp]
+24.5 +24.0 97 +34 +34 очень
душно
1007.4 1005.6
00 13.11 штиль 0 3500 м дымка 9/4 <50 м
[Sc Ac trans Ci fib]
+24.6 +23.9 96 +34 +34 очень
душно
1008.5 1006.7 +23.6 6
03 13.11 ЮЗ 2 18 км мгла 8/4 600 м
[Cu hum Ac trans Ci fib]
+30.0 +25.7 78 +45 +50 опасность
перегрева
1008.7 1006.9
06 13.11 З 1 17 км мгла 8/4 540 м
[Cu hum Ac trans Ci fib]
+32.0 +26.1 71 +48 +56 опасность
перегрева
1005.9 1004.2
09 13.11 В 2 16 км мгла 8/5 500 м
[Cb cap Ac trans Ci sp]
+31.3 +25.9 73 +47 +48 опасность
перегрева
1004.8 1003.1
12 13.11 С 2 12 км в посл. час гроза 9/4 500 м
[Cb cap Ac lent Ci sp]
+28.3 +25.9 87 +42 +42 опасность
перегрева
1007.0 1005.2 +33.2
15 13.11 С 2 12 км гроза без осадков 9/3 500 м
[Cb cap Ac lent Ci sp]
+26.3 +24.3 89 +37 +37 очень
душно
1008.8 1007.0
18 13.11 В 1 8000 м гроза, ливневой дождь 9/4 500 м
[Cb cap Ac lent Cs]
+25.5 +24.7 95 +36 +36 очень
душно
1008.6 1006.8 0.2
21 13.11 штиль 0 8000 м в посл. час дождь 9/4 180 м
[St Ac lent Cs]
+24.8 +24.3 97 +34 +34 очень
душно
1007.5 1005.7
00 14.11 штиль 0 15 км дымка {гроза, дождь} 9/5 180 м
[Cb cap Ac trans Cs]
+25.3 +24.7 96 +36 +36 очень
душно
1009.1 1007.3 +24.5 4
03 14.11 Ю 1 6000 м слабый дождь 10/4 120 м
[Sc Ac trans Cs]
+26.0 +25.4 97 +38 +43 очень
душно
1011.4 1009.6
06 14.11 Ю 4 12 км слабый дождь 9/4 240 м
[Sc Ac trans Cs]
+26.6 +24.7 89 +38 +42 очень
душно
1009.0 1007.2 0.0
09 14.11 ЮЗ 2 18 км мгла {дождь} 9/4 500 м
[Cb cap Ac trans Ci sp]
+27.8 +24.8 84 +40 +41 очень
душно
1007.1 1005.3
12 14.11 С 1 12 км мгла 8/3 720 м
[Sc Ac trans Ci fib]
+25.9 +24.9 94 +37 +37 очень
душно
1007.9 1006.1 +28.3 0.0
15 14.11 СЗ 3 10 км дымка 9/3 720 м
[Sc Ac trans Ci fib]
+24.8 +24.1 96 +34 +34 очень
душно
1009.4 1007.6
18 14.11 Ю 1 10 км дымка 9/3 720 м
[Sc Ac trans Ci fib]
+24.5 +24.0 97 +34 +34 очень
душно
1009.4 1007.6
21 14.11 ЮЗ 2 8000 м дымка 9/3 150 м
[Sc Ac lent Ci sp]
+24.3 +23.6 96 +33 +33 очень
душно
1008.4 1006.6
00 15.11 С 2 14 км дымка 9/4 270 м
[Cb cap Ac trans Ci sp]
+24.6 +23.9 96 +34 +34 очень
душно
1009.5 1007.7 +24.0 0.0
03 15.11 СЗ 3 18 км мгла 8/3 600 м
[Cu med, cong Ac trans Ci sp]
+30.0 +25.5 77 +44 +50 опасность
перегрева
1010.3 1008.5
06 15.11 СВ 2 14 км осадки на расстоянии 9/4 480 м
[Cb cap Ac trans Ci sp]
+30.9 +26.1 76 +47 +53 опасность
перегрева
1008.4 1006.6
09 15.11 В 3 12 км осадки на расстоянии 9/4 480 м
[Cb cap Ac trans Ci sp]
+29.3 +25.6 81 +43 +45 опасность
перегрева
1007.0 1005.2
12 15.11 штиль 0 12 км зарница 9/4 500 м
[Cb cap Ac trans Ci sp]
+27.1 +25.3 90 +39 +39 очень
душно
1009.4 1007.6 +31.8
15 15.11 СЗ 2 12 км мгла 9/3 750 м
[Sc Ac trans Ci sp]
+24.6 +23.8 95 +33 +33 очень
душно
1010.5 1008.7
18 15.11 штиль 0 12 км дымка 9/4 240 м
[Sc Ac trans Ci sp]
+24.8 +24.0 95 +34 +34 очень
душно
1009.7 1007.9
21 15.11 С 1 9000 м гроза, ливневой дождь 9/5 240 м
[Cb cap Ac trans Ci sp]
+24.1 +23.6 97 +33 +33 очень
душно
1008.6 1006.8
00 16.11 С 2 11 км слабый дождь {гроза} 9/5 240 м
[St Ac lent Ci sp]
+25.1 +24.5 96 +35 +35 очень
душно
1009.9 1008.1 +24.1 1
03 16.11 СЗ 1 13 км мгла {дождь} 8/4 540 м
[Cu med, cong Ac trans Ci fib]
+29.7 +25.8 80 +44 +51 опасность
перегрева
1010.1 1008.3
06 16.11 В 3 16 км мгла 6/4 540 м
[Cb calv Ac trans Ci fib]
+32.4 +25.8 68 +48 +55 опасность
перегрева
1007.7 1005.9 0.0
09 16.11 В 4 15 км мгла 6/3 480 м
[Cb cap Ac trans Ci fib]
+31.6 +26.1 73 +48 +50 опасность
перегрева
1006.5 1004.7
12 16.11 С 1 12 км зарница 9/4 480 м
[Cb cap Ac trans Ci sp]
+27.7 +25.5 88 +41 +41 опасность
перегрева
1008.7 1006.9 +33.4
15 16.11 СЗ 1 8000 м гроза, ливневой дождь 9/5 150 м
[Cb cap Ac trans Cs]
+26.0 +25.4 97 +38 +38 очень
душно
1010.5 1008.7
18 16.11 С 1 9000 м слабый дождь {гроза} 9/5 150 м
[Frnb Ac trans Ci sp]
+25.6 +24.8 95 +36 +36 очень
душно
1009.3 1007.5 5
21 16.11 штиль 0 7000 м зарница {дождь} 8/4 60 м
[Cb calv Ac trans Ci sp]
+25.3 +24.7 96 +36 +36 очень
душно
1007.8 1006.0
00 17.11 штиль 0 15 км дымка 9/3 600 м
[Sc Ac trans Ci fib]
+25.2 +24.7 97 +35 +36 очень
душно
1009.5 1007.7 +24.8 5
03 17.11 С 2 18 км мгла 8/5 570 м
[Cu hum Ac trans Ci fib]
+29.6 +26.5 83 +45 +50 опасность
перегрева
1011.2 1009.4
06 17.11 С 2 17 км мгла 9/4 500 м
[Cb cap Ac trans Ci fib]
+30.5 +25.5 75 +45 +51 опасность
перегрева
1008.6 1006.8
09 17.11 С 2 17 км слабый ливневой дождь 9/4 500 м
[Cb cap Ac trans Ci fib]
+29.7 +26.6 83 +46 +48 опасность
перегрева
1006.5 1004.7
12 17.11 СЗ 2 11 км мгла 6/1 720 м
[Sc Ac trans Ci fib]
+26.7 +25.4 93 +39 +39 очень
душно
1007.3 1005.5 +31.5 0.2
15 17.11 штиль 0 10 км зарница 8/4 480 м
[Cb cap Ac lent Ci sp]
+25.9 +24.9 94 +37 +37 очень
душно
1009.1 1007.3
18 17.11 СЗ 1 8000 м дымка 6/4 150 м
[Sc Ac trans Ci fib]
+24.9 +24.2 96 +34 +34 очень
душно
1008.7 1006.9

 

Местоположение метеостанции Kuantan (Малайзия): широта 3.78 долгота 103.21 высота над уровнем моря 16 м.

В архиве по умолчанию представлена погода в Kuantan за последнюю неделю. Архивные данные за месяц целиком и за предыдущие месяцы, начиная с января 2011 года, Вы можете получить, выбрав интересующий диапазон дат из раскрывающегося списка и нажав кнопку "Ввод!".

Внимание! Время в таблицах - всемирное. Для получения местного времени необходимо прибавить поправку, которая в Kuantan равна 7 ч.

Смотрите также архив погоды в соседних городах и на ближайших метеорологических станциях:

Погода в Kuala Trengganu (Малайзия) (178 км)
Погода в Mersing (Малайзия) (198 км)
Погода в Kuala Lumpur (Малайзия) (198 км)
Погода в Malacca (Малайзия) (199 км)
Погода в Kuala Lumpur Int Airport (Малайзия) (205 км)
Погода в Cameron Highlands (Малайзия) (218 км)
Погода в Johore Bharu / Senai (Малайзия) (245 км)
Погода в Ipoh (Малайзия) (250 км)
Погода в Singapore (Сингапур) (281 км)
Погода в Sitiawan (Малайзия) (283 км)

Пояснения к столбцам:

Ветер - указаны скорость ветра в м/с - средняя за 10 мин, порывы в срок и между сроками (в фигурных скобках) и направление, откуда дует ветер: С - северный, СВ - северо-восточный, В - восточный, ЮВ - юго-восточный, Ю - южный, ЮЗ - юго-западный, З - западный, СЗ - северо-западный.
Видимость - горизонтальная дальность видимости в метрах или километрах. При видимости от 1 до 10 км при отсутствии осадков обычно наблюдается дымка, при ухудшении видимости до 1 км и менее - туман. В сухую погоду видимость может ухудшаться дымом, пылью или мглою.
Явления - указаны атмосферные явления, наблюдавшиеся в срок или в последний час перед сроком; фигурными скобками обозначены явления, наблюдавшиеся между сроками (за 1-3 часа до срока); квадратными скобками обозначены град или гололедные отложения с указанием их диаметра в мм.
Облачность - указаны через наклонную черту общая и нижняя облачность в баллах и высота нижней границы облаков в метрах; квадратными скобками обозначены формы облаков: Ci - перистые, Cs - перисто-слоистые, Cc - перисто-кучевые, Ac - высококучевые, As - высокослоистые, Sc - слоисто-кучевые, Ns - слоисто-дождевые, Cu - кучевые, Cb - кучево-дождевые. Подробнее классификацию облаков см. в Атласе облаков (PDF).
T - Температура воздуха - температура, измеренная на высоте 2 м над землей.
Td - Температура точки росы - температура, при понижении до которой содержащийся в воздухе водяной пар достигнет насыщения.
f - Относительная влажность воздуха - влажноcть воздуха, измеренная на высоте 2 м над землей.
Te - Эффективная температура - температура, которую ощущает одетый по сезону человек в тени. Характеристика душности погоды. При расчете учитывается влияние влажности воздуха и скорости ветра на теплоощущения человека.
Tes - Эффективная температура на солнце - температура, которую ощущает человек, с поправкой на солнечный нагрев. Характеристика знойности погоды. Зависит от высоты солнца над горизонтом, облачности и скорости ветра. Ночью, в пасмурную погоду, а также при ветре 12 м/с и более поправка равна нулю.
P - Атмосферное давление - приведенное к уровню моря атмосферное давление.
Po - Атмосферное давление - измеренное на уровне метеостанции атмосферное давление.
Tmin - Минимальная температура - минимум температуры воздуха на высоте 2 м над землей.
Tmax - Максимальная температура - максимум температуры воздуха на высоте 2 м над землей.
R - Количество осадков - Количество выпавших осадков за период времени, мм. При наведении курсора мыши на число - период времени, за который выпало указанное количество осадков.
R24 - Количество осадков - Количество выпавших осадков за 24 часа, мм.
S - Снежный покров - Высота снежного покрова, см. При наведении курсора мыши на число - состояние снежного покрова и степень покрытия местности в баллах.